Tabellarische Ansicht des 30.5.2022


Die einzelnen Werte des Tages

Uhrzeit Temperatur Luftdruck Luftfeuchte Wind Hi-Wind Taupunkt THW Index Wind Chill Heat Index Solar- strahlung Regen

00:00

8.9 C

1009.2 hpa

85 %

1.6 km/h aus 116

8.0 km/h aus WNW

6.6 C

8.9 C

8.9 C

8.9 C

0 W/m

0.00 mm

00:05

8.9 C

1009.2 hpa

85 %

1.6 km/h aus 116

6.4 km/h aus W

6.6 C

8.9 C

8.9 C

8.9 C

0 W/m

0.00 mm

00:10

8.9 C

1009.2 hpa

85 %

0.0 km/h aus 117

6.4 km/h aus WSW

6.5 C

8.9 C

8.9 C

8.9 C

0 W/m

0.00 mm

00:15

8.9 C

1009.2 hpa

85 %

0.0 km/h aus 116

0.0 km/h aus ---

6.5 C

8.9 C

8.9 C

8.9 C

0 W/m

0.00 mm

00:20

8.8 C

1009.2 hpa

85 %

0.0 km/h aus 114

0.0 km/h aus ---

6.4 C

8.8 C

8.8 C

8.8 C

0 W/m

0.00 mm

00:25

8.8 C

1009.2 hpa

85 %

0.0 km/h aus 116

6.4 km/h aus W

6.4 C

8.8 C

8.8 C

8.8 C

0 W/m

0.00 mm

00:30

8.8 C

1009.2 hpa

85 %

0.0 km/h aus 117

4.8 km/h aus WNW

6.4 C

8.8 C

8.8 C

8.8 C

0 W/m

0.00 mm

00:35

8.8 C

1009.2 hpa

84 %

0.0 km/h aus 117

6.4 km/h aus WNW

6.2 C

8.8 C

8.8 C

8.8 C

0 W/m

0.00 mm

00:40

8.8 C

1009.2 hpa

84 %

1.6 km/h aus 116

8.0 km/h aus W

6.2 C

8.8 C

8.8 C

8.8 C

0 W/m

0.00 mm

00:45

8.8 C

1009.1 hpa

84 %

0.0 km/h aus 116

0.0 km/h aus ---

6.3 C

8.8 C

8.8 C

8.8 C

0 W/m

0.00 mm

00:50

8.8 C

1009.1 hpa

84 %

0.0 km/h aus 112

0.0 km/h aus ---

6.3 C

8.8 C

8.8 C

8.8 C

0 W/m

0.00 mm

00:55

8.8 C

1009.1 hpa

84 %

3.2 km/h aus 117

9.7 km/h aus W

6.3 C

8.8 C

8.8 C

8.8 C

0 W/m

0.00 mm

01:00

8.8 C

1009.1 hpa

84 %

3.2 km/h aus 116

8.0 km/h aus W

6.3 C

8.8 C

8.8 C

8.8 C

0 W/m

0.00 mm

01:05

8.8 C

1009.1 hpa

84 %

1.6 km/h aus 116

6.4 km/h aus W

6.3 C

8.8 C

8.8 C

8.8 C

0 W/m

0.00 mm

01:10

8.8 C

1009.1 hpa

84 %

0.0 km/h aus 117

0.0 km/h aus ---

6.3 C

8.8 C

8.8 C

8.8 C

0 W/m

0.00 mm

01:15

8.8 C

1009.1 hpa

84 %

3.2 km/h aus 113

8.0 km/h aus W

6.3 C

8.8 C

8.8 C

8.8 C

0 W/m

0.00 mm

01:20

8.8 C

1009.1 hpa

84 %

3.2 km/h aus 116

9.7 km/h aus WNW

6.3 C

8.8 C

8.8 C

8.8 C

0 W/m

0.00 mm

01:25

8.8 C

1009.1 hpa

84 %

0.0 km/h aus 116

0.0 km/h aus ---

6.3 C

8.8 C

8.8 C

8.8 C

0 W/m

0.00 mm

01:30

8.8 C

1009.0 hpa

84 %

0.0 km/h aus 117

4.8 km/h aus WNW

6.3 C

8.8 C

8.8 C

8.8 C

0 W/m

0.00 mm

01:35

8.8 C

1009.0 hpa

84 %

0.0 km/h aus 116

4.8 km/h aus W

6.2 C

8.8 C

8.8 C

8.8 C

0 W/m

0.00 mm

01:40

8.8 C

1009.0 hpa

84 %

0.0 km/h aus 114

0.0 km/h aus ---

6.2 C

8.8 C

8.8 C

8.8 C

0 W/m

0.00 mm

01:45

8.8 C

1009.1 hpa

84 %

0.0 km/h aus 112

0.0 km/h aus ---

6.2 C

8.8 C

8.8 C

8.8 C

0 W/m

0.00 mm

01:50

8.8 C

1009.1 hpa

84 %

0.0 km/h aus 116

0.0 km/h aus ---

6.2 C

8.8 C

8.8 C

8.8 C

0 W/m

0.00 mm

01:55

8.8 C

1009.1 hpa

84 %

0.0 km/h aus 117

0.0 km/h aus ---

6.2 C

8.8 C

8.8 C

8.8 C

0 W/m

0.00 mm

02:00

8.7 C

1009.0 hpa

85 %

0.0 km/h aus 117

3.2 km/h aus W

6.3 C

8.7 C

8.7 C

8.7 C

0 W/m

0.00 mm

02:05

8.7 C

1009.0 hpa

85 %

0.0 km/h aus 117

0.0 km/h aus ---

6.3 C

8.7 C

8.7 C

8.7 C

0 W/m

0.00 mm

02:10

8.7 C

1009.0 hpa

85 %

0.0 km/h aus 114

0.0 km/h aus ---

6.3 C

8.7 C

8.7 C

8.7 C

0 W/m

0.00 mm

02:15

8.7 C

1008.8 hpa

85 %

0.0 km/h aus 117

0.0 km/h aus ---

6.3 C

8.7 C

8.7 C

8.7 C

0 W/m

0.00 mm

02:20

8.7 C

1008.8 hpa

85 %

0.0 km/h aus 116

0.0 km/h aus ---

6.3 C

8.7 C

8.7 C

8.7 C

0 W/m

0.00 mm

02:25

8.7 C

1008.8 hpa

85 %

0.0 km/h aus 117

0.0 km/h aus ---

6.3 C

8.7 C

8.7 C

8.7 C

0 W/m

0.00 mm

02:30

8.7 C

1008.8 hpa

85 %

0.0 km/h aus 117

0.0 km/h aus ---

6.3 C

8.7 C

8.7 C

8.7 C

0 W/m

0.00 mm

02:35

8.6 C

1008.8 hpa

85 %

0.0 km/h aus 115

0.0 km/h aus ---

6.2 C

8.6 C

8.6 C

8.6 C

0 W/m

0.00 mm

02:40

8.6 C

1008.8 hpa

85 %

0.0 km/h aus 114

0.0 km/h aus ---

6.2 C

8.6 C

8.6 C

8.6 C

0 W/m

0.00 mm

02:45

8.6 C

1008.7 hpa

85 %

0.0 km/h aus 116

0.0 km/h aus ---

6.2 C

8.6 C

8.6 C

8.6 C

0 W/m

0.00 mm

02:50

8.6 C

1008.7 hpa

85 %

0.0 km/h aus 117

0.0 km/h aus ---

6.2 C

8.6 C

8.6 C

8.6 C

0 W/m

0.00 mm

02:55

8.6 C

1008.7 hpa

85 %

0.0 km/h aus 116

0.0 km/h aus ---

6.2 C

8.6 C

8.6 C

8.6 C

0 W/m

0.00 mm

03:00

8.6 C

1008.7 hpa

85 %

0.0 km/h aus 117

0.0 km/h aus ---

6.2 C

8.6 C

8.6 C

8.6 C

0 W/m

0.00 mm

03:05

8.6 C

1008.7 hpa

85 %

0.0 km/h aus 113

0.0 km/h aus ---

6.2 C

8.6 C

8.6 C

8.6 C

0 W/m

0.00 mm

03:10

8.6 C

1008.7 hpa

85 %

0.0 km/h aus 116

0.0 km/h aus ---

6.2 C

8.6 C

8.6 C

8.6 C

0 W/m

0.00 mm

03:15

8.6 C

1008.7 hpa

85 %

1.6 km/h aus 117

6.4 km/h aus W

6.2 C

8.6 C

8.6 C

8.6 C

0 W/m

0.00 mm

03:20

8.5 C

1008.7 hpa

85 %

1.6 km/h aus 116

6.4 km/h aus W

6.1 C

8.5 C

8.5 C

8.5 C

0 W/m

0.00 mm

03:25

8.5 C

1008.7 hpa

85 %

1.6 km/h aus 117

8.0 km/h aus W

6.1 C

8.5 C

8.5 C

8.5 C

0 W/m

0.00 mm

03:30

8.4 C

1008.7 hpa

85 %

3.2 km/h aus 115

8.0 km/h aus W

6.1 C

8.4 C

8.4 C

8.4 C

0 W/m

0.00 mm

03:35

8.4 C

1008.7 hpa

85 %

0.0 km/h aus 115

0.0 km/h aus ---

6.1 C

8.4 C

8.4 C

8.4 C

0 W/m

0.00 mm

03:40

8.4 C

1008.7 hpa

85 %

0.0 km/h aus 115

0.0 km/h aus ---

6.1 C

8.4 C

8.4 C

8.4 C

0 W/m

0.00 mm

03:45

8.4 C

1008.6 hpa

85 %

0.0 km/h aus 117

4.8 km/h aus W

6.1 C

8.4 C

8.4 C

8.4 C

0 W/m

0.00 mm

03:50

8.4 C

1008.6 hpa

85 %

0.0 km/h aus 117

3.2 km/h aus WSW

6.1 C

8.4 C

8.4 C

8.4 C

0 W/m

0.00 mm

03:55

8.4 C

1008.6 hpa

85 %

0.0 km/h aus 116

0.0 km/h aus ---

6.1 C

8.4 C

8.4 C

8.4 C

0 W/m

0.00 mm

04:00

8.4 C

1008.6 hpa

85 %

0.0 km/h aus 115

0.0 km/h aus ---

6.0 C

8.4 C

8.4 C

8.4 C

0 W/m

0.00 mm

04:05

8.3 C

1008.6 hpa

85 %

0.0 km/h aus 114

0.0 km/h aus ---

6.0 C

8.3 C

8.3 C

8.3 C

0 W/m

0.00 mm

04:10

8.3 C

1008.6 hpa

85 %

0.0 km/h aus 117

0.0 km/h aus ---

6.0 C

8.3 C

8.3 C

8.3 C

0 W/m

0.00 mm

04:15

8.3 C

1008.7 hpa

85 %

0.0 km/h aus 117

0.0 km/h aus ---

5.9 C

8.3 C

8.3 C

8.3 C

0 W/m

0.00 mm

04:20

8.3 C

1008.7 hpa

85 %

0.0 km/h aus 117

0.0 km/h aus ---

5.9 C

8.3 C

8.3 C

8.3 C

0 W/m

0.00 mm

04:25

8.2 C

1008.7 hpa

85 %

0.0 km/h aus 118

0.0 km/h aus ---

5.8 C

8.2 C

8.2 C

8.2 C

0 W/m

0.00 mm

04:30

8.2 C

1008.7 hpa

85 %

0.0 km/h aus 113

0.0 km/h aus ---

5.8 C

8.2 C

8.2 C

8.2 C

0 W/m

0.00 mm

04:35

8.2 C

1008.7 hpa

85 %

0.0 km/h aus 114

0.0 km/h aus ---

5.8 C

8.2 C

8.2 C

8.2 C

0 W/m

0.00 mm

04:40

8.1 C

1008.7 hpa

85 %

0.0 km/h aus 117

0.0 km/h aus ---

5.7 C

8.1 C

8.1 C

8.1 C

0 W/m

0.00 mm

04:45

8.1 C

1008.6 hpa

85 %

0.0 km/h aus 117

0.0 km/h aus ---

5.7 C

8.1 C

8.1 C

8.1 C

0 W/m

0.00 mm

04:50

8.1 C

1008.6 hpa

85 %

0.0 km/h aus 116

0.0 km/h aus ---

5.7 C

8.1 C

8.1 C

8.1 C

0 W/m

0.00 mm

04:55

8.0 C

1008.6 hpa

85 %

0.0 km/h aus 87

0.0 km/h aus ---

5.6 C

8.0 C

8.0 C

8.0 C

0 W/m

0.00 mm

05:00

7.9 C

1008.7 hpa

85 %

0.0 km/h aus 114

0.0 km/h aus ---

5.6 C

7.9 C

7.9 C

7.9 C

0 W/m

0.00 mm

05:05

7.9 C

1008.7 hpa

86 %

0.0 km/h aus 116

0.0 km/h aus ---

5.7 C

7.9 C

7.9 C

7.9 C

0 W/m

0.00 mm

05:10

7.8 C

1008.7 hpa

86 %

0.0 km/h aus 117

0.0 km/h aus ---

5.6 C

7.8 C

7.8 C

7.8 C

1 W/m

0.00 mm

05:15

7.8 C

1008.7 hpa

86 %

0.0 km/h aus 117

0.0 km/h aus ---

5.6 C

7.8 C

7.8 C

7.8 C

5 W/m

0.00 mm

05:20

7.8 C

1008.7 hpa

86 %

0.0 km/h aus 117

3.2 km/h aus WSW

5.6 C

7.8 C

7.8 C

7.8 C

5 W/m

0.00 mm

05:25

7.8 C

1008.7 hpa

86 %

1.6 km/h aus 115

4.8 km/h aus WSW

5.6 C

7.8 C

7.8 C

7.8 C

9 W/m

0.00 mm

05:30

7.8 C

1008.7 hpa

87 %

4.8 km/h aus 114

8.0 km/h aus WSW

5.7 C

7.3 C

7.3 C

7.8 C

12 W/m

0.00 mm

05:35

7.8 C

1008.7 hpa

87 %

4.8 km/h aus 117

6.4 km/h aus WSW

5.7 C

7.3 C

7.3 C

7.8 C

14 W/m

0.00 mm

05:40

7.8 C

1008.7 hpa

87 %

3.2 km/h aus 117

6.4 km/h aus WSW

5.7 C

7.8 C

7.8 C

7.8 C

14 W/m

0.00 mm

05:45

7.8 C

1008.9 hpa

87 %

4.8 km/h aus 116

6.4 km/h aus WSW

5.8 C

7.4 C

7.4 C

7.8 C

13 W/m

0.00 mm

05:50

7.8 C

1008.9 hpa

88 %

3.2 km/h aus 116

4.8 km/h aus WSW

6.0 C

7.9 C

7.8 C

7.9 C

12 W/m

0.00 mm

05:55

7.8 C

1008.9 hpa

88 %

1.6 km/h aus 116

4.8 km/h aus WSW

6.0 C

7.9 C

7.8 C

7.9 C

12 W/m

0.00 mm

06:00

7.9 C

1008.9 hpa

88 %

0.0 km/h aus 114

0.0 km/h aus ---

6.0 C

7.9 C

7.9 C

7.9 C

14 W/m

0.00 mm

06:05

7.9 C

1008.9 hpa

88 %

0.0 km/h aus 117

3.2 km/h aus WSW

6.0 C

7.9 C

7.9 C

7.9 C

15 W/m

0.00 mm

06:10

7.9 C

1008.9 hpa

88 %

0.0 km/h aus 117

0.0 km/h aus ---

6.0 C

7.9 C

7.9 C

7.9 C

18 W/m

0.00 mm

06:15

7.9 C

1008.8 hpa

88 %

0.0 km/h aus 117

4.8 km/h aus WSW

6.1 C

8.0 C

7.9 C

8.0 C

24 W/m

0.00 mm

06:20

7.9 C

1008.8 hpa

88 %

0.0 km/h aus 117

3.2 km/h aus WSW

6.1 C

8.0 C

7.9 C

8.0 C

30 W/m

0.00 mm

06:25

8.0 C

1008.8 hpa

88 %

3.2 km/h aus 115

6.4 km/h aus WSW

6.1 C

8.1 C

8.0 C

8.1 C

35 W/m

0.00 mm

06:30

8.1 C

1009.0 hpa

88 %

4.8 km/h aus 113

11.3 km/h aus S

6.2 C

7.7 C

7.7 C

8.1 C

43 W/m

0.00 mm

06:35

8.1 C

1009.0 hpa

88 %

1.6 km/h aus 117

8.0 km/h aus W

6.2 C

8.1 C

8.1 C

8.1 C

54 W/m

0.00 mm

06:40

8.2 C

1009.0 hpa

88 %

1.6 km/h aus 117

4.8 km/h aus W

6.3 C

8.2 C

8.2 C

8.2 C

70 W/m

0.00 mm

06:45

8.2 C

1009.0 hpa

88 %

1.6 km/h aus 117

6.4 km/h aus WSW

6.3 C

8.2 C

8.2 C

8.2 C

83 W/m

0.00 mm

06:50

8.2 C

1009.0 hpa

88 %

0.0 km/h aus 115

3.2 km/h aus W

6.4 C

8.3 C

8.2 C

8.3 C

93 W/m

0.00 mm

06:55

8.3 C

1009.0 hpa

88 %

0.0 km/h aus 114

0.0 km/h aus ---

6.4 C

8.3 C

8.3 C

8.3 C

103 W/m

0.00 mm

07:00

8.3 C

1009.0 hpa

88 %

0.0 km/h aus 117

0.0 km/h aus ---

6.5 C

8.4 C

8.3 C

8.4 C

111 W/m

0.00 mm

07:05

8.4 C

1009.0 hpa

88 %

0.0 km/h aus 116

0.0 km/h aus ---

6.6 C

8.5 C

8.4 C

8.5 C

116 W/m

0.00 mm

07:10

8.6 C

1009.0 hpa

88 %

0.0 km/h aus 117

4.8 km/h aus W

6.7 C

8.6 C

8.6 C

8.6 C

114 W/m

0.00 mm

07:15

8.7 C

1009.1 hpa

88 %

0.0 km/h aus 117

4.8 km/h aus W

6.8 C

8.7 C

8.7 C

8.7 C

111 W/m

0.00 mm

07:20

8.8 C

1009.1 hpa

88 %

0.0 km/h aus 113

0.0 km/h aus ---

6.9 C

8.8 C

8.8 C

8.8 C

112 W/m

0.00 mm

07:25

8.8 C

1009.1 hpa

88 %

1.6 km/h aus 115

6.4 km/h aus WSW

6.9 C

8.8 C

8.8 C

8.8 C

118 W/m

0.00 mm

07:30

8.8 C

1009.2 hpa

88 %

1.6 km/h aus 117

6.4 km/h aus WSW

7.0 C

8.9 C

8.8 C

8.9 C

127 W/m

0.00 mm

07:35

8.9 C

1009.2 hpa

87 %

0.0 km/h aus 118

0.0 km/h aus ---

6.8 C

8.9 C

8.9 C

8.9 C

138 W/m

0.00 mm

07:40

9.0 C

1009.2 hpa

87 %

0.0 km/h aus 116

4.8 km/h aus WSW

7.0 C

9.1 C

9.0 C

9.1 C

145 W/m

0.00 mm

07:45

9.1 C

1009.2 hpa

87 %

1.6 km/h aus 115

6.4 km/h aus WSW

7.0 C

9.1 C

9.1 C

9.1 C

152 W/m

0.00 mm

07:50

9.2 C

1009.2 hpa

87 %

0.0 km/h aus 115

0.0 km/h aus ---

7.1 C

9.2 C

9.2 C

9.2 C

164 W/m

0.00 mm

07:55

9.3 C

1009.2 hpa

85 %

0.0 km/h aus 116

0.0 km/h aus ---

6.9 C

9.3 C

9.3 C

9.3 C

179 W/m

0.00 mm

08:00

9.4 C

1009.2 hpa

83 %

0.0 km/h aus 117

0.0 km/h aus ---

6.7 C

9.4 C

9.4 C

9.4 C

205 W/m

0.00 mm

08:05

9.7 C

1009.2 hpa

82 %

0.0 km/h aus 117

0.0 km/h aus ---

6.7 C

9.7 C

9.7 C

9.7 C

226 W/m

0.00 mm

08:10

9.8 C

1009.2 hpa

82 %

0.0 km/h aus 115

0.0 km/h aus ---

6.9 C

9.8 C

9.8 C

9.8 C

242 W/m

0.00 mm

08:15

9.8 C

1009.2 hpa

80 %

4.8 km/h aus 114

11.3 km/h aus SSW

6.5 C

9.6 C

9.6 C

9.8 C

262 W/m

0.00 mm

08:20

10.1 C

1009.2 hpa

81 %

3.2 km/h aus 117

9.7 km/h aus SSW

6.9 C

10.1 C

10.1 C

10.1 C

298 W/m

0.00 mm

08:25

10.2 C

1009.2 hpa

81 %

3.2 km/h aus 117

8.0 km/h aus SSW

7.1 C

10.2 C

10.2 C

10.2 C

301 W/m

0.00 mm

08:30

10.4 C

1009.2 hpa

80 %

1.6 km/h aus 117

6.4 km/h aus SSW

7.1 C

10.4 C

10.4 C

10.4 C

300 W/m

0.00 mm

08:35

10.3 C

1009.2 hpa

77 %

1.6 km/h aus 115

4.8 km/h aus S

6.5 C

10.2 C

10.3 C

10.2 C

313 W/m

0.00 mm

08:40

10.5 C

1009.2 hpa

78 %

1.6 km/h aus 114

6.4 km/h aus WSW

6.8 C

10.4 C

10.5 C

10.4 C

326 W/m

0.00 mm

08:45

10.6 C

1009.2 hpa

77 %

0.0 km/h aus 117

4.8 km/h aus WSW

6.7 C

10.4 C

10.6 C

10.4 C

396 W/m

0.00 mm

08:50

10.7 C

1009.2 hpa

74 %

4.8 km/h aus 117

9.7 km/h aus W

6.3 C

10.4 C

10.6 C

10.5 C

326 W/m

0.00 mm

08:55

10.9 C

1009.2 hpa

73 %

3.2 km/h aus 117

9.7 km/h aus WNW

6.3 C

10.7 C

10.9 C

10.7 C

398 W/m

0.00 mm

09:00

11.2 C

1009.4 hpa

72 %

3.2 km/h aus 116

8.0 km/h aus W

6.4 C

10.9 C

11.2 C

10.9 C

410 W/m

0.00 mm

09:05

11.0 C

1009.4 hpa

71 %

3.2 km/h aus 115

6.4 km/h aus WNW

5.9 C

10.7 C

11.0 C

10.7 C

384 W/m

0.00 mm

09:10

11.3 C

1009.4 hpa

70 %

4.8 km/h aus 117

9.7 km/h aus WSW

6.0 C

10.9 C

11.2 C

10.9 C

459 W/m

0.00 mm

09:15

11.4 C

1009.4 hpa

68 %

6.4 km/h aus 117

11.3 km/h aus SSW

5.7 C

10.7 C

11.1 C

11.1 C

496 W/m

0.00 mm

09:20

11.8 C

1009.4 hpa

68 %

4.8 km/h aus 117

11.3 km/h aus SW

6.1 C

11.4 C

11.8 C

11.4 C

537 W/m

0.00 mm

09:25

11.4 C

1009.4 hpa

69 %

6.4 km/h aus 115

16.1 km/h aus SSW

5.9 C

10.6 C

11.0 C

11.0 C

387 W/m

0.00 mm

09:30

11.5 C

1009.6 hpa

70 %

3.2 km/h aus 114

8.0 km/h aus SW

6.2 C

11.1 C

11.5 C

11.1 C

417 W/m

0.00 mm

09:35

11.6 C

1009.6 hpa

71 %

3.2 km/h aus 117

9.7 km/h aus W

6.5 C

11.2 C

11.6 C

11.2 C

401 W/m

0.00 mm

09:40

11.4 C

1009.6 hpa

70 %

1.6 km/h aus 116

6.4 km/h aus W

6.1 C

11.1 C

11.4 C

11.1 C

287 W/m

0.00 mm

09:45

11.2 C

1009.5 hpa

70 %

3.2 km/h aus 118

14.5 km/h aus SW

5.9 C

10.9 C

11.2 C

10.9 C

244 W/m

0.00 mm

09:50

11.1 C

1009.5 hpa

71 %

1.6 km/h aus 114

8.0 km/h aus S

6.0 C

10.8 C

11.1 C

10.8 C

210 W/m

0.00 mm

09:55

10.9 C

1009.5 hpa

71 %

3.2 km/h aus 116

16.1 km/h aus S

5.8 C

10.6 C

10.9 C

10.6 C

206 W/m

0.00 mm

10:00

10.8 C

1009.5 hpa

73 %

1.6 km/h aus 117

9.7 km/h aus WSW

6.1 C

10.6 C

10.8 C

10.6 C

202 W/m

0.00 mm

10:05

10.8 C

1009.5 hpa

73 %

1.6 km/h aus 117

4.8 km/h aus W

6.1 C

10.6 C

10.8 C

10.6 C

208 W/m

0.00 mm

10:10

10.9 C

1009.5 hpa

74 %

1.6 km/h aus 117

4.8 km/h aus W

6.5 C

10.7 C

10.9 C

10.7 C

226 W/m

0.00 mm

10:15

10.9 C

1009.7 hpa

73 %

1.6 km/h aus 114

4.8 km/h aus WSW

6.2 C

10.7 C

10.9 C

10.7 C

236 W/m

0.00 mm

10:20

10.8 C

1009.7 hpa

72 %

1.6 km/h aus 115

6.4 km/h aus WSW

6.0 C

10.6 C

10.8 C

10.6 C

241 W/m

0.00 mm

10:25

10.9 C

1009.7 hpa

72 %

1.6 km/h aus 117

4.8 km/h aus SW

6.0 C

10.6 C

10.9 C

10.6 C

249 W/m

0.00 mm

10:30

11.0 C

1009.8 hpa

73 %

1.6 km/h aus 117

4.8 km/h aus W

6.3 C

10.7 C

11.0 C

10.7 C

274 W/m

0.00 mm

10:35

11.0 C

1009.8 hpa

71 %

1.6 km/h aus 117

4.8 km/h aus W

5.9 C

10.7 C

11.0 C

10.7 C

300 W/m

0.00 mm

10:40

10.9 C

1009.8 hpa

71 %

1.6 km/h aus 114

3.2 km/h aus W

5.9 C

10.7 C

10.9 C

10.7 C

274 W/m

0.00 mm

10:45

11.2 C

1009.8 hpa

74 %

0.0 km/h aus 116

1.6 km/h aus WSW

6.7 C

10.9 C

11.2 C

10.9 C

281 W/m

0.00 mm

10:50

11.2 C

1009.8 hpa

72 %

1.6 km/h aus 117

4.8 km/h aus W

6.4 C

10.9 C

11.2 C

10.9 C

295 W/m

0.00 mm

10:55

11.3 C

1009.8 hpa

72 %

1.6 km/h aus 117

4.8 km/h aus W

6.5 C

11.0 C

11.3 C

11.0 C

321 W/m

0.00 mm

11:00

11.3 C

1009.8 hpa

71 %

0.0 km/h aus 116

3.2 km/h aus W

6.2 C

10.9 C

11.3 C

10.9 C

351 W/m

0.00 mm

11:05

11.4 C

1009.8 hpa

71 %

1.6 km/h aus 114

8.0 km/h aus NW

6.4 C

11.1 C

11.4 C

11.1 C

378 W/m

0.00 mm

11:10

11.7 C

1009.8 hpa

71 %

1.6 km/h aus 117

6.4 km/h aus NW

6.6 C

11.3 C

11.7 C

11.3 C

406 W/m

0.00 mm

11:15

11.9 C

1009.7 hpa

69 %

0.0 km/h aus 116

3.2 km/h aus WNW

6.4 C

11.5 C

11.9 C

11.5 C

433 W/m

0.00 mm

11:20

12.1 C

1009.7 hpa

67 %

1.6 km/h aus 117

4.8 km/h aus WSW

6.1 C

11.6 C

12.1 C

11.6 C

439 W/m

0.00 mm

11:25

11.9 C

1009.7 hpa

67 %

1.6 km/h aus 115

4.8 km/h aus WNW

6.0 C

11.4 C

11.9 C

11.4 C

285 W/m

0.00 mm

11:30

12.1 C

1009.8 hpa

68 %

1.6 km/h aus 114

4.8 km/h aus NW

6.3 C

11.6 C

12.1 C

11.6 C

200 W/m

0.00 mm

11:35

12.0 C

1009.8 hpa

68 %

1.6 km/h aus 117

4.8 km/h aus WNW

6.3 C

11.6 C

12.0 C

11.6 C

188 W/m

0.00 mm

11:40

11.8 C

1009.8 hpa

66 %

1.6 km/h aus 117

4.8 km/h aus WNW

5.6 C

11.3 C

11.8 C

11.3 C

226 W/m

0.00 mm

11:45

11.8 C

1009.8 hpa

67 %

1.6 km/h aus 116

6.4 km/h aus WNW

5.8 C

11.3 C

11.8 C

11.3 C

246 W/m

0.00 mm

11:50

11.8 C

1009.8 hpa

68 %

1.6 km/h aus 115

4.8 km/h aus WSW

6.1 C

11.4 C

11.8 C

11.4 C

215 W/m

0.00 mm

11:55

11.8 C

1009.8 hpa

67 %

1.6 km/h aus 116

4.8 km/h aus W

5.8 C

11.3 C

11.8 C

11.3 C

202 W/m

0.00 mm

12:00

11.8 C

1009.8 hpa

67 %

1.6 km/h aus 117

8.0 km/h aus WNW

5.8 C

11.3 C

11.8 C

11.3 C

226 W/m

0.00 mm

12:05

11.8 C

1009.8 hpa

67 %

1.6 km/h aus 117

3.2 km/h aus WNW

5.8 C

11.3 C

11.8 C

11.3 C

255 W/m

0.00 mm

12:10

11.8 C

1009.8 hpa

66 %

1.6 km/h aus 117

4.8 km/h aus WSW

5.7 C

11.3 C

11.8 C

11.3 C

273 W/m

0.00 mm

12:15

12.0 C

1009.9 hpa

66 %

1.6 km/h aus 115

4.8 km/h aus W

5.8 C

11.5 C

12.0 C

11.5 C

297 W/m

0.00 mm

12:20

12.2 C

1009.9 hpa

66 %

3.2 km/h aus 114

11.3 km/h aus SW

6.0 C

11.7 C

12.2 C

11.7 C

322 W/m

0.00 mm

12:25

12.3 C

1009.9 hpa

64 %

4.8 km/h aus 117

8.0 km/h aus SW

5.7 C

11.8 C

12.3 C

11.8 C

328 W/m

0.00 mm

12:30

12.5 C

1010.0 hpa

65 %

1.6 km/h aus 115

8.0 km/h aus S

6.1 C

11.9 C

12.5 C

11.9 C

371 W/m

0.00 mm

12:35

12.4 C

1010.0 hpa

66 %

0.0 km/h aus 117

6.4 km/h aus WNW

6.3 C

11.9 C

12.4 C

11.9 C

365 W/m

0.00 mm

12:40

12.5 C

1010.0 hpa

67 %

1.6 km/h aus 115

6.4 km/h aus W

6.5 C

12.0 C

12.5 C

12.0 C

333 W/m

0.00 mm

12:45

12.6 C

1010.1 hpa

66 %

3.2 km/h aus 115

9.7 km/h aus SW

6.4 C

12.0 C

12.6 C

12.0 C

294 W/m

0.00 mm

12:50

12.4 C

1010.1 hpa

66 %

3.2 km/h aus 116

8.0 km/h aus WSW

6.3 C

11.9 C

12.4 C

11.9 C

261 W/m

0.00 mm

12:55

12.2 C

1010.1 hpa

67 %

3.2 km/h aus 117

8.0 km/h aus WSW

6.3 C

11.7 C

12.2 C

11.7 C

253 W/m

0.00 mm

13:00

12.3 C

1010.2 hpa

66 %

3.2 km/h aus 116

8.0 km/h aus WSW

6.2 C

11.8 C

12.3 C

11.8 C

281 W/m

0.00 mm

13:05

12.3 C

1010.2 hpa

63 %

4.8 km/h aus 113

8.0 km/h aus SW

5.4 C

11.7 C

12.3 C

11.7 C

317 W/m

0.00 mm

13:10

12.4 C

1010.2 hpa

65 %

3.2 km/h aus 116

14.5 km/h aus SW

6.0 C

11.8 C

12.4 C

11.8 C

343 W/m

0.00 mm

13:15

12.7 C

1010.2 hpa

64 %

4.8 km/h aus 117

11.3 km/h aus SSW

6.0 C

12.1 C

12.7 C

12.1 C

353 W/m

0.00 mm

13:20

12.7 C

1010.2 hpa

61 %

1.6 km/h aus 116

14.5 km/h aus WSW

5.3 C

12.0 C

12.7 C

12.0 C

362 W/m

0.00 mm

13:25

12.6 C

1010.2 hpa

61 %

1.6 km/h aus 117

4.8 km/h aus W

5.2 C

11.9 C

12.6 C

11.9 C

369 W/m

0.00 mm

13:30

12.8 C

1010.3 hpa

61 %

3.2 km/h aus 114

6.4 km/h aus WSW

5.5 C

12.2 C

12.8 C

12.2 C

403 W/m

0.00 mm

13:35

13.1 C

1010.3 hpa

59 %

3.2 km/h aus 117

6.4 km/h aus W

5.2 C

12.3 C

13.1 C

12.3 C

452 W/m

0.00 mm

13:40

13.1 C

1010.3 hpa

60 %

0.0 km/h aus 117

4.8 km/h aus WNW

5.5 C

12.3 C

13.1 C

12.3 C

532 W/m

0.00 mm

13:45

13.3 C

1010.3 hpa

59 %

3.2 km/h aus 117

9.7 km/h aus SW

5.5 C

12.6 C

13.3 C

12.6 C

474 W/m

0.00 mm

13:50

13.1 C

1010.3 hpa

61 %

1.6 km/h aus 116

4.8 km/h aus WSW

5.8 C

12.4 C

13.1 C

12.4 C

350 W/m

0.00 mm

13:55

12.9 C

1010.3 hpa

62 %

3.2 km/h aus 115

20.9 km/h aus S

5.8 C

12.3 C

12.9 C

12.3 C

242 W/m

0.00 mm

14:00

12.7 C

1010.3 hpa

63 %

1.6 km/h aus 117

14.5 km/h aus W

5.8 C

12.1 C

12.7 C

12.1 C

133 W/m

0.00 mm

14:05

12.3 C

1010.3 hpa

64 %

3.2 km/h aus 117

16.1 km/h aus S

5.7 C

11.7 C

12.3 C

11.7 C

84 W/m

0.00 mm

14:10

12.1 C

1010.3 hpa

64 %

1.6 km/h aus 117

4.8 km/h aus W

5.4 C

11.5 C

12.1 C

11.5 C

75 W/m

0.00 mm

14:15

12.0 C

1010.3 hpa

64 %

1.6 km/h aus 114

6.4 km/h aus WNW

5.4 C

11.4 C

12.0 C

11.4 C

72 W/m

0.00 mm

14:20

11.9 C

1010.3 hpa

66 %

0.0 km/h aus 115

3.2 km/h aus WNW

5.8 C

11.4 C

11.9 C

11.4 C

79 W/m

0.00 mm

14:25

11.8 C

1010.3 hpa

65 %

3.2 km/h aus 116

6.4 km/h aus NW

5.5 C

11.3 C

11.8 C

11.3 C

86 W/m

0.00 mm

14:30

11.8 C

1010.3 hpa

65 %

0.0 km/h aus 116

1.6 km/h aus WNW

5.5 C

11.3 C

11.8 C

11.3 C

97 W/m

0.00 mm

14:35

11.8 C

1010.3 hpa

65 %

1.6 km/h aus 117

4.8 km/h aus W

5.5 C

11.3 C

11.8 C

11.3 C

108 W/m

0.00 mm

14:40

11.9 C

1010.3 hpa

65 %

1.6 km/h aus 115

3.2 km/h aus S

5.5 C

11.4 C

11.9 C

11.4 C

119 W/m

0.00 mm

14:45

11.9 C

1010.3 hpa

65 %

0.0 km/h aus 112

1.6 km/h aus W

5.6 C

11.4 C

11.9 C

11.4 C

136 W/m

0.00 mm

14:50

12.1 C

1010.3 hpa

65 %

0.0 km/h aus 117

3.2 km/h aus W

5.7 C

11.6 C

12.1 C

11.6 C

161 W/m

0.00 mm

14:55

12.3 C

1010.3 hpa

64 %

3.2 km/h aus 117

9.7 km/h aus SW

5.7 C

11.7 C

12.3 C

11.7 C

196 W/m

0.00 mm

15:00

12.4 C

1010.4 hpa

62 %

1.6 km/h aus 116

4.8 km/h aus WSW

5.4 C

11.8 C

12.4 C

11.8 C

245 W/m

0.00 mm

15:05

12.7 C

1010.4 hpa

65 %

1.6 km/h aus 116

6.4 km/h aus WSW

6.3 C

12.2 C

12.7 C

12.2 C

305 W/m

0.00 mm

15:10

13.0 C

1010.4 hpa

63 %

3.2 km/h aus 116

11.3 km/h aus SW

6.1 C

12.4 C

13.0 C

12.4 C

356 W/m

0.00 mm

15:15

13.2 C

1010.4 hpa

63 %

3.2 km/h aus 117

8.0 km/h aus SW

6.3 C

12.6 C

13.2 C

12.6 C

388 W/m

0.00 mm

15:20

13.1 C

1010.4 hpa

65 %

3.2 km/h aus 116

8.0 km/h aus SW

6.7 C

12.6 C

13.1 C

12.6 C

397 W/m

0.00 mm

15:25

13.3 C

1010.4 hpa

63 %

3.2 km/h aus 116

9.7 km/h aus SW

6.4 C

12.7 C

13.3 C

12.7 C

347 W/m

0.00 mm

15:30

13.1 C

1010.4 hpa

61 %

0.0 km/h aus 114

4.8 km/h aus SW

5.7 C

12.4 C

13.1 C

12.4 C

332 W/m

0.00 mm

15:35

13.4 C

1010.4 hpa

65 %

4.8 km/h aus 116

11.3 km/h aus SSW

7.0 C

12.9 C

13.4 C

12.9 C

418 W/m

0.00 mm

15:40

13.2 C

1010.4 hpa

64 %

1.6 km/h aus 117

6.4 km/h aus SSW

6.5 C

12.6 C

13.2 C

12.6 C

357 W/m

0.00 mm

15:45

13.4 C

1010.4 hpa

65 %

0.0 km/h aus 117

4.8 km/h aus SSW

6.9 C

12.8 C

13.4 C

12.8 C

388 W/m

0.00 mm

15:50

13.8 C

1010.4 hpa

56 %

1.6 km/h aus 116

9.7 km/h aus NW

5.1 C

12.9 C

13.8 C

12.9 C

459 W/m

0.00 mm

15:55

14.0 C

1010.4 hpa

56 %

1.6 km/h aus 112

4.8 km/h aus NW

5.4 C

13.2 C

14.0 C

13.2 C

503 W/m

0.00 mm

16:00

13.9 C

1010.5 hpa

56 %

1.6 km/h aus 116

6.4 km/h aus W

5.3 C

13.1 C

13.9 C

13.1 C

529 W/m

0.00 mm

16:05

14.4 C

1010.5 hpa

57 %

3.2 km/h aus 116

8.0 km/h aus WNW

6.0 C

13.6 C

14.4 C

13.6 C

518 W/m

0.00 mm

16:10

14.7 C

1010.5 hpa

58 %

3.2 km/h aus 118

4.8 km/h aus W

6.5 C

13.9 C

14.7 C

13.9 C

524 W/m

0.00 mm

16:15

14.6 C

1010.4 hpa

55 %

3.2 km/h aus 114

8.0 km/h aus WSW

5.6 C

13.7 C

14.6 C

13.7 C

521 W/m

0.00 mm

16:20

14.6 C

1010.4 hpa

56 %

3.2 km/h aus 115

16.1 km/h aus WNW

5.9 C

13.7 C

14.6 C

13.7 C

416 W/m

0.00 mm

16:25

14.2 C

1010.4 hpa

54 %

3.2 km/h aus 117

9.7 km/h aus WSW

5.0 C

13.2 C

14.2 C

13.2 C

355 W/m

0.00 mm

16:30

14.1 C

1010.4 hpa

55 %

3.2 km/h aus 117

6.4 km/h aus WSW

5.1 C

13.2 C

14.1 C

13.2 C

323 W/m

0.00 mm

16:35

13.9 C

1010.4 hpa

54 %

1.6 km/h aus 117

3.2 km/h aus WNW

4.8 C

13.0 C

13.9 C

13.0 C

317 W/m

0.00 mm

16:40

14.1 C

1010.4 hpa

57 %

3.2 km/h aus 114

9.7 km/h aus NW

5.7 C

13.3 C

14.1 C

13.3 C

336 W/m

0.00 mm

16:45

14.1 C

1010.5 hpa

57 %

1.6 km/h aus 116

6.4 km/h aus WSW

5.7 C

13.2 C

14.1 C

13.2 C

295 W/m

0.00 mm

16:50

13.9 C

1010.5 hpa

58 %

1.6 km/h aus 117

6.4 km/h aus WNW

5.8 C

13.1 C

13.9 C

13.1 C

286 W/m

0.00 mm

16:55

14.1 C

1010.5 hpa

60 %

1.6 km/h aus 116

6.4 km/h aus NW

6.4 C

13.3 C

14.1 C

13.3 C

334 W/m

0.00 mm

17:00

14.1 C

1010.5 hpa

61 %

0.0 km/h aus 115

3.2 km/h aus NNW

6.6 C

13.4 C

14.1 C

13.4 C

299 W/m

0.00 mm

17:05

13.8 C

1010.5 hpa

63 %

0.0 km/h aus 115

3.2 km/h aus NNW

6.9 C

13.2 C

13.8 C

13.2 C

290 W/m

0.00 mm

17:10

13.9 C

1010.5 hpa

59 %

1.6 km/h aus 117

6.4 km/h aus NNW

6.0 C

13.1 C

13.9 C

13.1 C

274 W/m

0.00 mm

17:15

13.8 C

1010.5 hpa

58 %

1.6 km/h aus 116

6.4 km/h aus N

5.7 C

13.0 C

13.8 C

13.0 C

184 W/m

0.00 mm

17:20

13.8 C

1010.5 hpa

59 %

1.6 km/h aus 116

4.8 km/h aus W

5.9 C

13.0 C

13.8 C

13.0 C

219 W/m

0.00 mm

17:25

13.7 C

1010.5 hpa

57 %

1.6 km/h aus 115

6.4 km/h aus W

5.3 C

12.9 C

13.7 C

12.9 C

213 W/m

0.00 mm

17:30

13.7 C

1010.5 hpa

59 %

1.6 km/h aus 116

4.8 km/h aus W

5.8 C

12.9 C

13.7 C

12.9 C

210 W/m

0.00 mm

17:35

13.7 C

1010.5 hpa

59 %

1.6 km/h aus 116

6.4 km/h aus W

5.8 C

12.9 C

13.7 C

12.9 C

219 W/m

0.00 mm

17:40

13.8 C

1010.5 hpa

60 %

1.6 km/h aus 117

4.8 km/h aus W

6.1 C

13.1 C

13.8 C

13.1 C

223 W/m

0.00 mm

17:45

13.7 C

1010.5 hpa

59 %

0.0 km/h aus 117

3.2 km/h aus W

5.8 C

12.9 C

13.7 C

12.9 C

204 W/m

0.00 mm

17:50

13.8 C

1010.5 hpa

58 %

1.6 km/h aus 114

4.8 km/h aus W

5.7 C

13.0 C

13.8 C

13.0 C

195 W/m

0.00 mm

17:55

13.8 C

1010.5 hpa

56 %

1.6 km/h aus 116

4.8 km/h aus WNW

5.1 C

12.9 C

13.8 C

12.9 C

190 W/m

0.00 mm

18:00

13.7 C

1010.5 hpa

58 %

1.6 km/h aus 117

4.8 km/h aus W

5.5 C

12.9 C

13.7 C

12.9 C

180 W/m

0.00 mm

18:05

13.8 C

1010.5 hpa

60 %

1.6 km/h aus 115

6.4 km/h aus NW

6.1 C

13.1 C

13.8 C

13.1 C

184 W/m

0.00 mm

18:10

13.8 C

1010.5 hpa

59 %

1.6 km/h aus 116

6.4 km/h aus NW

6.0 C

13.1 C

13.8 C

13.1 C

160 W/m

0.00 mm

18:15

13.7 C

1010.5 hpa

59 %

1.6 km/h aus 114

4.8 km/h aus WNW

5.8 C

12.9 C

13.7 C

12.9 C

147 W/m

0.00 mm

18:20

13.7 C

1010.5 hpa

59 %

1.6 km/h aus 117

4.8 km/h aus WNW

5.8 C

12.9 C

13.7 C

12.9 C

127 W/m

0.00 mm

18:25

13.6 C

1010.5 hpa

60 %

0.0 km/h aus 116

1.6 km/h aus WNW

6.0 C

12.9 C

13.6 C

12.9 C

108 W/m

0.00 mm

18:30

13.6 C

1010.5 hpa

61 %

0.0 km/h aus 117

1.6 km/h aus WNW

6.2 C

12.9 C

13.6 C

12.9 C

96 W/m

0.00 mm

18:35

13.4 C

1010.5 hpa

60 %

0.0 km/h aus 115

0.0 km/h aus ---

5.8 C

12.7 C

13.4 C

12.7 C

91 W/m

0.00 mm

18:40

13.4 C

1010.5 hpa

60 %

0.0 km/h aus 115

0.0 km/h aus ---

5.8 C

12.7 C

13.4 C

12.7 C

99 W/m

0.00 mm

18:45

13.5 C

1010.5 hpa

61 %

0.0 km/h aus 117

0.0 km/h aus ---

6.1 C

12.8 C

13.5 C

12.8 C

106 W/m

0.00 mm

18:50

13.4 C

1010.5 hpa

60 %

0.0 km/h aus 117

0.0 km/h aus ---

5.8 C

12.7 C

13.4 C

12.7 C

104 W/m

0.00 mm

18:55

13.6 C

1010.5 hpa

60 %

0.0 km/h aus 115

0.0 km/h aus ---

5.9 C

12.8 C

13.6 C

12.8 C

112 W/m

0.00 mm

19:00

13.7 C

1010.5 hpa

60 %

0.0 km/h aus 114

0.0 km/h aus ---

6.0 C

12.9 C

13.7 C

12.9 C

109 W/m

0.00 mm

19:05

13.6 C

1010.5 hpa

59 %

0.0 km/h aus 115

0.0 km/h aus ---

5.7 C

12.8 C

13.6 C

12.8 C

119 W/m

0.00 mm

19:10

13.7 C

1010.5 hpa

60 %

0.0 km/h aus 117

0.0 km/h aus ---

6.0 C

12.9 C

13.7 C

12.9 C

135 W/m

0.00 mm

19:15

13.7 C

1010.6 hpa

59 %

0.0 km/h aus 117

0.0 km/h aus ---

5.8 C

12.9 C

13.7 C

12.9 C

123 W/m

0.00 mm

19:20

13.7 C

1010.6 hpa

60 %

0.0 km/h aus 118

0.0 km/h aus ---

6.1 C

13.0 C

13.7 C

13.0 C

106 W/m

0.00 mm

19:25

13.7 C

1010.6 hpa

60 %

1.6 km/h aus 114

6.4 km/h aus WNW

6.1 C

13.0 C

13.7 C

13.0 C

91 W/m

0.00 mm

19:30

13.7 C

1010.6 hpa

60 %

1.6 km/h aus 116

6.4 km/h aus W

6.1 C

13.0 C

13.7 C

13.0 C

91 W/m

0.00 mm

19:35

13.7 C

1010.6 hpa

60 %

1.6 km/h aus 117

3.2 km/h aus W

6.0 C

12.9 C

13.7 C

12.9 C

84 W/m

0.00 mm

19:40

13.6 C

1010.6 hpa

61 %

1.6 km/h aus 117

3.2 km/h aus W

6.2 C

12.9 C

13.6 C

12.9 C

83 W/m

0.00 mm

19:45

13.5 C

1010.7 hpa

61 %

0.0 km/h aus 117

1.6 km/h aus W

6.1 C

12.8 C

13.5 C

12.8 C

91 W/m

0.00 mm

19:50

13.4 C

1010.7 hpa

62 %

1.6 km/h aus 114

4.8 km/h aus W

6.3 C

12.8 C

13.4 C

12.8 C

78 W/m

0.00 mm

19:55

13.4 C

1010.7 hpa

63 %

0.0 km/h aus 116

3.2 km/h aus WNW

6.5 C

12.8 C

13.4 C

12.8 C

65 W/m

0.00 mm

20:00

13.4 C

1010.7 hpa

62 %

0.0 km/h aus 116

1.6 km/h aus WNW

6.3 C

12.7 C

13.4 C

12.7 C

55 W/m

0.00 mm

20:05

13.3 C

1010.7 hpa

62 %

0.0 km/h aus 117

0.0 km/h aus ---

6.2 C

12.7 C

13.3 C

12.7 C

43 W/m

0.00 mm

20:10

13.3 C

1010.7 hpa

62 %

0.0 km/h aus 116

0.0 km/h aus ---

6.2 C

12.7 C

13.3 C

12.7 C

36 W/m

0.00 mm

20:15

13.3 C

1010.7 hpa

62 %

0.0 km/h aus 113

0.0 km/h aus ---

6.2 C

12.7 C

13.3 C

12.7 C

32 W/m

0.00 mm

20:20

13.3 C

1010.7 hpa

62 %

0.0 km/h aus 117

0.0 km/h aus ---

6.2 C

12.7 C

13.3 C

12.7 C

30 W/m

0.00 mm

20:25

13.3 C

1010.7 hpa

62 %

0.0 km/h aus 118

0.0 km/h aus ---

6.1 C

12.6 C

13.3 C

12.6 C

27 W/m

0.00 mm

20:30

13.2 C

1010.8 hpa

63 %

0.0 km/h aus 115

0.0 km/h aus ---

6.3 C

12.6 C

13.2 C

12.6 C

24 W/m

0.00 mm

20:35

13.1 C

1010.8 hpa

63 %

0.0 km/h aus 116

0.0 km/h aus ---

6.2 C

12.5 C

13.1 C

12.5 C

21 W/m

0.00 mm

20:40

13.0 C

1010.8 hpa

64 %

0.0 km/h aus 114

0.0 km/h aus ---

6.3 C

12.4 C

13.0 C

12.4 C

19 W/m

0.00 mm

20:45

12.9 C

1010.9 hpa

65 %

0.0 km/h aus 116

0.0 km/h aus ---

6.5 C

12.4 C

12.9 C

12.4 C

17 W/m

0.00 mm

20:50

12.9 C

1010.9 hpa

66 %

0.0 km/h aus 116

0.0 km/h aus ---

6.7 C

12.3 C

12.9 C

12.3 C

14 W/m

0.00 mm

20:55

12.8 C

1010.9 hpa

67 %

0.0 km/h aus 117

0.0 km/h aus ---

6.8 C

12.3 C

12.8 C

12.3 C

12 W/m

0.00 mm

21:00

12.8 C

1011.2 hpa

67 %

0.0 km/h aus 117

0.0 km/h aus ---

6.8 C

12.3 C

12.8 C

12.3 C

9 W/m

0.00 mm

21:05

12.7 C

1011.2 hpa

68 %

0.0 km/h aus 113

0.0 km/h aus ---

6.9 C

12.2 C

12.7 C

12.2 C

7 W/m

0.00 mm

21:10

12.6 C

1011.2 hpa

69 %

0.0 km/h aus 116

0.0 km/h aus ---

7.1 C

12.2 C

12.6 C

12.2 C

6 W/m

0.00 mm

21:15

12.5 C

1011.3 hpa

69 %

0.0 km/h aus 117

0.0 km/h aus ---

7.0 C

12.1 C

12.5 C

12.1 C

5 W/m

0.00 mm

21:20

12.4 C

1011.3 hpa

69 %

0.0 km/h aus 117

0.0 km/h aus ---

6.9 C

11.9 C

12.4 C

11.9 C

0 W/m

0.00 mm

21:25

12.3 C

1011.3 hpa

70 %

0.0 km/h aus 117

0.0 km/h aus ---

7.0 C

11.9 C

12.3 C

11.9 C

0 W/m

0.00 mm

21:30

12.2 C

1011.3 hpa

70 %

0.0 km/h aus 114

0.0 km/h aus ---

6.9 C

11.8 C

12.2 C

11.8 C

0 W/m

0.00 mm

21:35

12.1 C

1011.3 hpa

70 %

0.0 km/h aus 116

0.0 km/h aus ---

6.7 C

11.7 C

12.1 C

11.7 C

0 W/m

0.00 mm

21:40

11.9 C

1011.3 hpa

70 %

0.0 km/h aus 117

0.0 km/h aus ---

6.6 C

11.6 C

11.9 C

11.6 C

0 W/m

0.00 mm

21:45

11.8 C

1011.5 hpa

70 %

0.0 km/h aus 117

0.0 km/h aus ---

6.5 C

11.4 C

11.8 C

11.4 C

0 W/m

0.00 mm

21:50

11.7 C

1011.5 hpa

71 %

0.0 km/h aus 117

0.0 km/h aus ---

6.6 C

11.3 C

11.7 C

11.3 C

0 W/m

0.00 mm

21:55

11.6 C

1011.5 hpa

72 %

0.0 km/h aus 115

0.0 km/h aus ---

6.7 C

11.3 C

11.6 C

11.3 C

0 W/m

0.00 mm

22:00

11.5 C

1011.8 hpa

72 %

0.0 km/h aus 115

0.0 km/h aus ---

6.6 C

11.2 C

11.5 C

11.2 C

0 W/m

0.00 mm

22:05

11.4 C

1011.8 hpa

73 %

0.0 km/h aus 116

0.0 km/h aus ---

6.8 C

11.2 C

11.4 C

11.2 C

0 W/m

0.00 mm

22:10

11.3 C

1011.8 hpa

73 %

0.0 km/h aus 117

0.0 km/h aus ---

6.7 C

11.1 C

11.3 C

11.1 C

0 W/m

0.00 mm

22:15

11.3 C

1011.8 hpa

73 %

0.0 km/h aus 117

0.0 km/h aus ---

6.6 C

11.0 C

11.3 C

11.0 C

0 W/m

0.00 mm

22:20

11.2 C

1011.8 hpa

73 %

0.0 km/h aus 116

0.0 km/h aus ---

6.6 C

10.9 C

11.2 C

10.9 C

0 W/m

0.00 mm

22:25

11.1 C

1011.8 hpa

73 %

0.0 km/h aus 115

0.0 km/h aus ---

6.5 C

10.8 C

11.1 C

10.8 C

0 W/m

0.00 mm

22:30

11.1 C

1011.8 hpa

73 %

0.0 km/h aus 117

0.0 km/h aus ---

6.4 C

10.8 C

11.1 C

10.8 C

0 W/m

0.00 mm

22:35

10.9 C

1011.8 hpa

73 %

0.0 km/h aus 115

0.0 km/h aus ---

6.3 C

10.7 C

10.9 C

10.7 C

0 W/m

0.00 mm

22:40

10.8 C

1011.8 hpa

74 %

0.0 km/h aus 116

0.0 km/h aus ---

6.3 C

10.6 C

10.8 C

10.6 C

0 W/m

0.00 mm

22:45

10.7 C

1011.8 hpa

74 %

0.0 km/h aus 117

0.0 km/h aus ---

6.3 C

10.5 C

10.7 C

10.5 C

0 W/m

0.00 mm

22:50

10.6 C

1011.8 hpa

75 %

0.0 km/h aus 115

0.0 km/h aus ---

6.4 C

10.4 C

10.6 C

10.4 C

0 W/m

0.00 mm

22:55

10.5 C

1011.8 hpa

76 %

0.0 km/h aus 113

0.0 km/h aus ---

6.4 C

10.4 C

10.5 C

10.4 C

0 W/m

0.00 mm

23:00

10.4 C

1011.8 hpa

76 %

0.0 km/h aus 116

0.0 km/h aus ---

6.3 C

10.3 C

10.4 C

10.3 C

0 W/m

0.00 mm

23:05

10.2 C

1011.8 hpa

76 %

0.0 km/h aus 115

0.0 km/h aus ---

6.2 C

10.1 C

10.2 C

10.1 C

0 W/m

0.00 mm

23:10

10.2 C

1011.8 hpa

76 %

0.0 km/h aus 117

0.0 km/h aus ---

6.1 C

10.1 C

10.2 C

10.1 C

0 W/m

0.00 mm

23:15

10.0 C

1011.8 hpa

76 %

0.0 km/h aus 117

0.0 km/h aus ---

6.0 C

9.9 C

10.0 C

9.9 C

0 W/m

0.00 mm

23:20

9.9 C

1011.8 hpa

76 %

0.0 km/h aus 114

0.0 km/h aus ---

5.9 C

9.8 C

9.9 C

9.8 C

0 W/m

0.00 mm

23:25

9.8 C

1011.8 hpa

76 %

0.0 km/h aus 115

0.0 km/h aus ---

5.7 C

9.7 C

9.8 C

9.7 C

0 W/m

0.00 mm

23:30

9.7 C

1011.8 hpa

76 %

0.0 km/h aus 117

0.0 km/h aus ---

5.6 C

9.6 C

9.7 C

9.6 C

0 W/m

0.00 mm

23:35

9.6 C

1011.8 hpa

77 %

0.0 km/h aus 118

0.0 km/h aus ---

5.7 C

9.4 C

9.6 C

9.4 C

0 W/m

0.00 mm

23:40

9.4 C

1011.8 hpa

77 %

0.0 km/h aus 117

0.0 km/h aus ---

5.6 C

9.3 C

9.4 C

9.3 C

0 W/m

0.00 mm

23:45

9.3 C

1011.9 hpa

77 %

0.0 km/h aus 115

0.0 km/h aus ---

5.5 C

9.2 C

9.3 C

9.2 C

0 W/m

0.00 mm

23:50

9.2 C

1011.9 hpa

77 %

0.0 km/h aus 113

0.0 km/h aus ---

5.3 C

9.1 C

9.2 C

9.1 C

0 W/m

0.00 mm

23:55

9.1 C

1011.9 hpa

77 %

0.0 km/h aus 117

0.0 km/h aus ---

5.2 C

8.9 C

9.1 C

8.9 C

0 W/m

0.00 mm